Regional Weather Roundup
Issued by NWS

Home | Current Version | Previous Version | Graphics & Text | Print | Product List | Glossary On
Versions: 1 2 3 4 5 6 7 8 9 10 11 12 13 14 15 16 17 18 19 20 21 22 23 24 25 26 27 28 29 30 31 32 33 34 35 36 37 38 39 40 41 42 43 44 45 46 47 48 49 50
767
ASUS44 KLIX 010005
RWRLA
LOUISIANA WEATHER ROUNDUP
NATIONAL WEATHER SERVICE NEW ORLEANS LA
700 PM CDT TUE SEP 30 2014

NOTE: "FAIR" INDICATES FEW OR NO CLOUDS BELOW 12,000 FEET WITH NO
      SIGNIFICANT WEATHER AND/OR OBSTRUCTIONS TO VISIBILITY.
      SKY/WX - SKY CONDITION AND SIGNIFICANT WEATHER.
      TMP - AIR TEMPERATURE.    DP   - DEWPOINT TEMPERATURE.
      RH  - RELATIVE HUMIDITY.  PRES - PRESSURE.
      HX  - HEAT INDEX.         WCI  - WIND CHILL INDEX.

*  THESE STATIONS ARE NOT NWS OR FAA STATIONS AND ARE NOT UNDER
   NWS QUALITY CONTROL.

LAZ040-048-061>063-065-066-069-010100-
SOUTHEAST LOUISIANA

CITY           SKY/WX    TMP DP  RH WIND       PRES   REMARKS
N.O. AUDUBON     N/A     82  75  80 MISG        N/A
6HR MIN TEMP:  81; 6HR MAX TEMP:  91;

N.O. INTL ARPT PTCLDY    82  71  69 SE10      29.84R
6HR MIN TEMP:  82; 6HR MAX TEMP:  88;

N.O. LAKEFRONT CLEAR     80  71  74 E12       29.85R
6HR MIN TEMP:  80; 6HR MAX TEMP:  86;

N.O. DOWNTOWN* FAIR      81  70  69 SE7       29.85S
6HR MIN TEMP:  81; 6HR MAX TEMP:  90;

SLIDELL        CLEAR     79  71  76 SE5       29.85R
6HR MIN TEMP:  79; 6HR MAX TEMP:  87;

BATON ROUGE    CLEAR     82  70  66 E6        29.82S
6HR MIN TEMP:  82; 6HR MAX TEMP:  90;

BOOTHVILLE     CLEAR     79  74  84 E8        29.86R
6HR MIN TEMP:  79; 6HR MAX TEMP:  83; 6HR PCP: TRACE;

BELLE CHASSE   PTCLDY    79  72  79 SE7       29.84S
6HR MIN TEMP:  79; 6HR MAX TEMP:  87;

BOGALUSA*      FAIR      80  71  72 S8        29.87R
6HR MIN TEMP:  80; 6HR MAX TEMP:  90;

GALLIANO*      NOT AVBL
NEW ROADS*     FAIR      82  71  71 N5        29.82S
6HR MIN TEMP:  82; 6HR MAX TEMP:  89;

GONZALES*      FAIR      82  75  78 CALM      29.83R
6HR MIN TEMP:  82; 6HR MAX TEMP:  88;

HAMMOND*       PTCLDY    81  70  69 SE6       29.86S
HOUMA*         PTCLDY   N/A N/A N/A E7        29.84R
PORT FOURCHON* PTCLDY    81  73  78 E9        29.88R

$$

LAZ041-044-053-054-010100-
SOUTHWEST LOUISIANA

CITY           SKY/WX    TMP DP  RH WIND       PRES   REMARKS
LAKE CHARLES   CLEAR     81  72  74 S6        29.81S
6HR MIN TEMP:  81; 6HR MAX TEMP:  89;

LAFAYETTE      PTCLDY    82  73  74 S3        29.82R
6HR MIN TEMP:  82; 6HR MAX TEMP:  89;

PATTERSON      CLOUDY    81  73  78 S7          N/A
6HR MIN TEMP:  81; 6HR MAX TEMP:  91;

SALT POINT       N/A     83  75  77 CALM      29.82S
6HR MIN TEMP:  83; 6HR MAX TEMP:  89; 6HR PCP:  0.03;

NEW IBERIA     MOCLDY    83  70  64 S5        29.83R
6HR MIN TEMP:  83; 6HR MAX TEMP:  91;

CHENAULT AIRPK NOT AVBL

$$

LAZ027-028-010100-
CENTRAL LOUISIANA

CITY           SKY/WX    TMP DP  RH WIND       PRES   REMARKS
FORT POLK      CLEAR     82  72  72 SE2       29.81R
6HR MIN TEMP:  82; 6HR MAX TEMP:  89;

ALEXANDRIA INT CLEAR     82  69  64 SE3       29.79S
6HR MIN TEMP:  82; 6HR MAX TEMP:  91;

ALEXANDRIA     CLEAR     80  72  76 CALM      29.81S
6HR MIN TEMP:  80; 6HR MAX TEMP:  92;


$$

LAZ001-002-010100-
NORTHWEST LOUISIANA

CITY           SKY/WX    TMP DP  RH WIND       PRES   REMARKS
SHREVEPORT     PTCLDY    85  66  53 SE7       29.79R
6HR MIN TEMP:  85; 6HR MAX TEMP:  92;

BARKSDALE AFB  PTCLDY    82  67  60 E5        29.80R
6HR MIN TEMP:  82; 6HR MAX TEMP:  92;

DTN SHREVEPORT PTCLDY    84  65  52 SE6       29.79S
6HR MIN TEMP:  84; 6HR MAX TEMP:  90;


$$

LAZ014-016-010100-
NORTHEAST LOUISIANA

CITY           SKY/WX    TMP DP  RH WIND       PRES   REMARKS
MONROE         CLEAR     79  69  71 CALM      29.83R
6HR MIN TEMP:  79; 6HR MAX TEMP:  91; 6HR PCP: TRACE;

TALLULAH       CLEAR     75  67  76 CALM      29.83S
6HR MIN TEMP:  75; 6HR MAX TEMP:  90;


$$




USA.gov is the U.S. government's official web portal to all federal, state and local government web resources and services.